Regional Weather Roundup
Issued by NWS

Home | Current Version | Previous Version | Text Only | Print | Product List | Glossary Off
Versions: 1 2 3 4 5 6 7 8 9 10 11 12 13 14 15 16 17 18 19 20 21 22 23 24 25 26 27

000
ASUS45 KBOU 210207
RWRCO

WEATHER ROUNDUP FOR COLORADO
NATIONAL WEATHER SERVICE DENVER/BOULDER CO
800 PM MDT SUN AUG 20 2017

NOTE: "FAIR" INDICATES FEW OR NO CLOUDS BELOW 12000 FEET WITH NO
SIGNIFICANT WEATHER AND/OR OBSTRUCTIONS TO VISIBILITY.

COZ001>005-013-030-031-210300-
...NORTHWEST COLORADO...

CITY           SKY/WX    TMP DP  RH WIND       PRES   REMARKS
CRAIG          FAIR      74  41  30 E3        30.13S
HAYDEN         FAIR      74  38  27 CALM      30.18F
MEEKER         FAIR      76  36  23 N3        30.14R
RABBIT EARS PA FAIR      54  34  47 NW3       30.49S
STEAMBOAT SPGS FAIR      70  40  33 N3        30.21R
WALDEN         MOCLDY    63  34  34 N14       30.32F
$$

COZ006>008-011-210300-
...WEST CENTRAL VALLEYS...

CITY           SKY/WX    TMP DP  RH WIND       PRES   REMARKS
GRAND JUNCTION FAIR      87  35  15 NW7       29.97R
MONTROSE       FAIR      78  39  24 S8        30.09R
EAGLE          CLOUDY    80  36  20 S5        30.15R
RIFLE          FAIR      82  32  16 CALM      30.03S
DELTA          FAIR      87  33  14 SW10G17   30.01R
NUCLA          FAIR      77  36  22 NW6       30.17R
$$

COZ017>023-064>068-210300-
...SOUTHWEST COLORADO...

CITY           SKY/WX    TMP DP  RH WIND       PRES   REMARKS
DURANGO        FAIR      68  42  38 S9        30.22R
CORTEZ         FAIR      73  45  36 MISG      30.12R
PAGOSA SPRINGS FAIR      66  36  32 CALM      30.29R
TELLURIDE      FAIR      63  37  38 CALM      30.40S
WOLF CREEK PAS MOCLDY    46  32  57 S6        30.62S
$$

COZ009-010-012-014-032>034-037-058>063-210300-
...CENTRAL COLORADO...

CITY           SKY/WX    TMP DP  RH WIND       PRES   REMARKS
ASPEN          MOCLDY    71  35  26 SE10      30.24R
BUENA VISTA    FAIR      67  37  33 E6        30.32S
COPPER MTN     CLOUDY    54  34  47 CALM      30.62S
BERTHOUD PASS  MOCLDY    43  37  81 SE12      30.65R
COTTONWOOD PAS FAIR      63  34  34 SE6       30.46S
GUNNISON       MOCLDY    70  40  33 E10       30.26R
KREMMLING      MOCLDY    79  32  18 CALM      30.24R
LEADVILLE      CLOUDY    55  36  48 NE3       30.45R
MONARCH PASS   CLOUDY    50  32  50 NE13      30.71R
SALIDA         MOCLDY    69  40  34 SE14G23   30.35R
SUNLIGHT       FAIR      59  25  27 NW6       30.52R
WILKERSON PASS MOCLDY    50  34  53 E7        30.60R
$$

COZ069>075-210300-
...SAN LUIS VALLEY/SANGRE DE CRISTO MOUNTAINS...

CITY           SKY/WX    TMP DP  RH WIND       PRES   REMARKS
ALAMOSA        FAIR      62  46  55 S7        30.26R
DEL NORTE      FAIR      67  39  36 CALM      30.30R
LA VETA PASS   NOT AVBL
SAGUACHE       FAIR      64  41  42 SE6       30.31R
$$

COZ035-036-038>040-210300-
...NORTHERN COLORADO FRONT RANGE...

CITY           SKY/WX    TMP DP  RH WIND       PRES   REMARKS
DENVER INTL AP MOCLDY    78  41  26 NE3       30.09R
DMNS CITY PARK   N/A     79  36  20 NW7       30.10S
AURORA         MOCLDY    77  41  27 CALM      30.12R
FRONT RANGE AP FAIR      77  46  33 SE8       30.11S
ERIE MUNI ARPT FAIR      77  37  23 SW5       30.14R
BOULDER MUN AP FAIR      79  39  24 W7        30.10R
CENTENNIAL     MOCLDY    79  37  22 W6        30.14R
BROOMFIELD     MOCLDY    77  39  25 SW9       30.13S
FORT COLLINS   FAIR      77  54  44 CALM      30.08R
LONGMONT       FAIR      75  52  44 W5        30.10R
$$

COZ041-046-047-076>085-087-088-210300-
...PIKES PEAK/PALMER DIVIDE AND SOUTHERN FOOTHILLS...

CITY           SKY/WX    TMP DP  RH WIND       PRES   REMARKS
COLO. SPRINGS  MOCLDY    72  44  36 SW24      30.20S THUNDER
A. F. ACADEMY  MOCLDY    66  43  43 S8        30.21F
SCHRIEVER AFB  CLOUDY    75  36  24 W10       30.17S
CHEYENNE MTN   SHOWER    63  44  50 SW20G26   30.23S
ELLICOTT       NOT AVBL
FALCON         MOCLDY    67  40  37 W15G25    30.25R
FORT CARSON    FAIR      68  45  42 W16G28    30.20R
LIMON          FAIR      70  55  59 E8        30.10R
MONUMENT HILL  FAIR      63  41  45 SW12      30.26R
CANON CITY     PTCLDY    73  48  40 NW13G24   30.16R
WALSENBURG     FAIR      72  41  33 CALM      30.15R
TRINIDAD       FAIR      72  44  36 W10       30.11R
$$

COZ042>045-048>051-090-091-210300-
...NORTHEAST COLORADO...

CITY           SKY/WX    TMP DP  RH WIND       PRES   REMARKS
GREELEY ARPT   FAIR      75  58  55 CALM      30.06R
AKRON          FAIR      78  62  57 E8        30.05R
BURLINGTON     FAIR      77  62  59 SE9       30.01R
WRAY           NOT AVBL
YUMA           FAIR      73  55  53 NE6       30.02R
STERLING       FAIR      81  63  54 E7        30.00R
HOLYOKE        FAIR      77  68  73 NE7       30.00R
FORT MORGAN    FAIR      75  55  48 NE6       30.04R
$$

COZ086-089-092>099-210300-
...SOUTHEAST COLORADO...

CITY           SKY/WX    TMP DP  RH WIND       PRES   REMARKS
PUEBLO         MOCLDY    78  47  33 NW32G43   30.05R
LA JUNTA       FAIR      79  57  46 E7        29.98R
LAMAR          FAIR      80  59  48 SE12      29.93R
SPRINGFIELD      N/A     73  61  65 S10       30.02R
$$




USA.gov is the U.S. government's official web portal to all federal, state and local government web resources and services.